Date String (YYYY-MM-DD hh:mm:ss) UTC,Instrument flags,Ambient pressure (hPa),Sample flow (lpm),Bypass flow (lpm),Sample temperature (°C),Ambient temperature (°C),ASC tube jacket temperature (°C),LED temperature (°C),Box temperature (°C),Sample RH (%),Span deviation,Mass concentration (μg/m³),Mass concentration (μg/m³),Mass concentration (μg/m³)
DateTimeUTC,F1_M11,P_M11,Q1_M11,Q2_M11,T1_M11,T2_M11,T3_M11,T4_M11,T5_M11,U1_M11,ZSPAN_M11,X0_M11,X2_M11,X1_M11
2022-04-16 08:00:00,,0827.4,5.00,0.00,25.7,24.8,00.0,34.7,27.6,08.9,0000.0,0024.79,0005.94,0003.75
2022-04-16 08:01:00,,0827.4,5.00,0.00,25.7,24.7,00.0,34.7,27.6,08.9,0000.0,0025.14,0005.99,0003.75
2022-04-16 08:02:00,,0827.4,5.00,0.00,25.7,24.7,00.0,34.7,27.5,08.9,0000.0,0024.66,0005.95,0003.75
2022-04-16 08:03:00,,0827.4,5.00,0.00,25.7,24.7,00.0,34.6,27.5,08.9,0000.0,0023.62,0005.96,0003.74
2022-04-16 08:04:00,,0827.4,5.00,0.00,25.7,24.7,00.0,34.6,27.5,08.9,0000.0,0022.46,0005.89,0003.73
2022-04-16 08:05:00,,0827.4,5.00,0.00,25.7,24.7,00.0,34.6,27.5,08.9,0000.0,0021.59,0005.88,0003.74
2022-04-16 08:06:00,,0827.4,5.01,0.00,25.7,24.7,00.0,34.6,27.5,08.9,0000.0,0021.09,0005.91,0003.74
2022-04-16 08:07:00,,0827.4,5.01,0.00,25.7,24.7,00.0,34.6,27.5,08.9,0000.0,0020.41,0005.99,0003.75
2022-04-16 08:08:00,,0827.4,5.00,0.00,25.7,24.7,00.0,34.6,27.5,08.9,0000.0,0020.27,0005.93,0003.76
2022-04-16 08:09:00,,0827.4,5.00,0.00,25.6,24.7,00.0,34.6,27.5,08.9,0000.0,0019.59,0005.93,0003.77
2022-04-16 08:10:00,,0827.4,5.00,0.00,25.6,24.7,00.0,34.6,27.5,09.0,0000.0,0019.55,0005.92,0003.77
2022-04-16 08:11:00,,0827.4,5.00,0.00,25.6,24.7,00.0,34.6,27.5,09.0,0000.0,0018.53,0005.86,0003.76
2022-04-16 08:12:00,,0827.4,5.00,0.00,25.6,24.6,00.0,34.6,27.5,09.0,0000.0,0018.90,0005.81,0003.76
2022-04-16 08:13:00,,0827.4,5.00,0.00,25.6,24.6,00.0,34.6,27.5,09.0,0000.0,0021.45,0005.83,0003.76
2022-04-16 08:14:00,,0827.4,5.00,0.00,25.6,24.6,00.0,34.6,27.5,09.0,0000.0,0022.01,0005.83,0003.76
2022-04-16 08:15:00,,0827.4,5.01,0.00,25.6,24.6,00.0,34.6,27.4,09.0,0000.0,0022.51,0005.88,0003.78
2022-04-16 08:16:00,,0827.4,5.01,0.00,25.6,24.6,00.0,34.6,27.4,09.1,0000.0,0022.70,0005.94,0003.78
2022-04-16 08:17:00,,0827.4,4.99,0.00,25.6,24.6,00.0,34.6,27.4,09.1,0000.0,0023.79,0005.92,0003.78
2022-04-16 08:18:00,,0827.4,5.00,0.00,25.6,24.6,00.0,34.5,27.4,09.1,0000.0,0024.51,0005.90,0003.79
2022-04-16 08:19:00,,0827.4,4.99,0.00,25.6,24.6,00.0,34.5,27.4,09.1,0000.0,0025.14,0005.97,0003.80
2022-04-16 08:20:00,,0827.4,5.00,0.00,25.6,24.5,00.0,34.5,27.4,09.1,0000.0,0026.33,0006.02,0003.83
2022-04-16 08:21:00,,0827.4,5.00,0.00,25.6,24.5,00.0,34.5,27.4,09.1,0000.0,0026.75,0006.02,0003.84
2022-04-16 08:22:00,,0827.4,4.99,0.00,25.5,24.5,00.0,34.5,27.3,09.1,0000.0,0025.83,0005.99,0003.86
2022-04-16 08:23:00,,0827.4,5.01,0.00,25.5,24.5,00.0,34.5,27.3,09.1,0000.0,0026.02,0005.98,0003.87
2022-04-16 08:24:00,,0827.4,5.00,0.00,25.5,24.5,00.0,34.5,27.3,09.1,0000.0,0023.91,0006.02,0003.90
2022-04-16 08:25:00,,0827.4,5.00,0.00,25.5,24.5,00.0,34.5,27.3,09.1,0000.0,0023.07,0005.98,0003.91
2022-04-16 08:26:00,,0827.4,4.99,0.00,25.5,24.5,00.0,34.5,27.3,09.1,0000.0,0023.50,0005.98,0003.92
2022-04-16 08:27:00,,0827.3,5.00,0.00,25.5,24.5,00.0,34.5,27.3,09.1,0000.0,0023.92,0005.95,0003.93
2022-04-16 08:28:00,,0827.4,5.00,0.00,25.5,24.5,00.0,34.5,27.3,09.1,0000.0,0023.28,0005.95,0003.94
2022-04-16 08:29:00,,0827.4,5.00,0.00,25.5,24.5,00.0,34.4,27.3,09.1,0000.0,0021.40,0006.01,0003.94
2022-04-16 08:30:00,,0827.4,5.00,0.00,25.5,24.4,00.0,34.4,27.3,09.2,0000.0,0020.76,0006.06,0003.95
2022-04-16 08:31:00,,0827.4,5.00,0.00,25.5,24.4,00.0,34.4,27.3,09.2,0000.0,0019.48,0006.11,0003.96
2022-04-16 08:32:00,,0827.4,5.00,0.00,25.5,24.4,00.0,34.4,27.3,09.2,0000.0,0018.80,0006.10,0003.96
2022-04-16 08:33:00,,0827.4,5.01,0.00,25.4,24.4,00.0,34.4,27.3,09.2,0000.0,0018.06,0006.12,0003.96
2022-04-16 08:34:00,,0827.4,4.99,0.00,25.4,24.4,00.0,34.4,27.2,09.2,0000.0,0017.22,0006.13,0003.95
2022-04-16 08:35:00,,0827.4,5.00,0.00,25.4,24.4,00.0,34.4,27.2,09.2,0000.0,0016.60,0006.10,0003.96
2022-04-16 08:36:00,,0827.4,5.00,0.00,25.4,24.4,00.0,34.4,27.2,09.1,0000.0,0016.79,0006.14,0003.96
2022-04-16 08:37:00,,0827.4,5.00,0.00,25.4,24.4,00.0,34.4,27.2,09.2,0000.0,0018.01,0006.19,0003.97
2022-04-16 08:38:00,,0827.4,5.00,0.00,25.4,24.4,00.0,34.4,27.2,09.4,0000.0,0017.00,0006.15,0003.98
2022-04-16 08:39:00,,0827.4,5.00,0.00,25.4,24.4,00.0,34.3,27.2,09.6,0000.0,0018.01,0006.14,0003.98
2022-04-16 08:40:00,,0827.4,5.00,0.00,25.4,24.4,00.0,34.3,27.2,09.8,0000.0,0018.67,0006.03,0003.98
2022-04-16 08:41:00,,0827.3,5.01,0.00,25.4,24.4,00.0,34.3,27.2,09.6,0000.0,0019.17,0005.98,0003.99
2022-04-16 08:42:00,,0827.4,5.00,0.00,25.3,24.4,00.0,34.3,27.2,09.5,0000.0,0020.01,0005.96,0003.98
2022-04-16 08:43:00,,0827.4,5.00,0.00,25.3,24.3,00.0,34.3,27.2,09.6,0000.0,0021.01,0005.99,0003.98
2022-04-16 08:44:00,,0827.4,5.01,0.00,25.3,24.3,00.0,34.3,27.1,09.7,0000.0,0021.28,0005.94,0003.99
2022-04-16 08:45:00,,0827.3,4.99,0.00,25.3,24.3,00.0,34.3,27.1,09.8,0000.0,0020.69,0005.97,0004.01
2022-04-16 08:46:00,,0827.3,5.00,0.00,25.3,24.3,00.0,34.3,27.1,09.9,0000.0,0020.60,0006.03,0004.03
2022-04-16 08:47:00,,0827.3,4.99,0.00,25.3,24.3,00.0,34.3,27.1,10.0,0000.0,0020.21,0006.01,0004.03
2022-04-16 08:48:00,,0827.4,5.00,0.00,25.3,24.3,00.0,34.3,27.1,10.3,0000.0,0018.94,0005.97,0004.04
2022-04-16 08:49:00,,0827.3,5.00,0.00,25.3,24.3,00.0,34.3,27.1,10.5,0000.0,0019.55,0005.93,0004.06
2022-04-16 08:50:00,,0827.3,5.01,0.00,25.3,24.3,00.0,34.3,27.1,10.9,0000.0,0018.55,0005.93,0004.09
2022-04-16 08:51:00,,0827.3,5.00,0.00,25.3,24.2,00.0,34.2,27.1,11.2,0000.0,0017.88,0006.00,0004.12
2022-04-16 08:52:00,,0827.3,5.00,0.00,25.2,24.2,00.0,34.2,27.0,11.2,0000.0,0017.62,0005.97,0004.13
2022-04-16 08:53:00,,0827.3,5.00,0.00,25.2,24.2,00.0,34.2,27.0,11.2,0000.0,0016.51,0005.88,0004.16
2022-04-16 08:54:00,,0827.3,5.00,0.00,25.2,24.2,00.0,34.2,27.0,11.2,0000.0,0015.61,0005.82,0004.19
2022-04-16 08:55:00,,0827.3,5.00,0.00,25.2,24.2,00.0,34.2,27.0,11.2,0000.0,0015.84,0005.84,0004.21
2022-04-16 08:56:00,,0827.4,5.00,0.00,25.2,24.1,00.0,34.2,27.0,11.3,0000.0,0016.64,0005.84,0004.22
2022-04-16 08:57:00,,0827.3,5.00,0.00,25.2,24.1,00.0,34.2,27.0,11.4,0000.0,0016.77,0005.82,0004.22
2022-04-16 08:58:00,,0827.3,5.00,0.00,25.2,24.1,00.0,34.2,27.0,11.5,0000.0,0017.14,0005.81,0004.23
2022-04-16 08:59:00,,0827.3,5.00,0.00,25.1,24.1,00.0,34.1,26.9,11.6,0000.0,0017.78,0005.77,0004.23
